Location: Derby
(52.9213°N, 1.4761°W)
Time: 16:45:44
(UTC+01:00)

Vanguard 2 Rocket - Pass Details

Date: 19 May 2025
Orbit: 554 x 3293 km, 32.9° (Epoch: 14 June)

Event Time Altitude Azimuth Distance (km) Brightness Sun altitude
Rises 02:52:08 0° 249° (WSW) 6,409 10.8 -13.5°
Reaches altitude 10° 02:57:59 10° 238° (WSW) 4,912 10.1 -13.1°
Maximum altitude 03:07:10 23° 194° (SSW) 3,051 9.0 -12.4°
Drops below altitude 10° 03:13:30 10° 145° (SE) 3,261 9.5 -11.9°
Sets 03:16:27 0° 130° (SE) 3,883 10.1 -11.7°
